EW7038 Weather Reports


Display with metric or nautical units.
time (UTC)temp
F
wind
direction
speed
MPH
gust
MPH
rain 1hr
in
rain 24hr
in
rain mn
in
humidity
%
barometer
mb
20260504011804 89 26 1.0 1.0 0.00 0.00 0.00 19 1006.1
20260504011303 89 6 1.0 2.0 0.00 0.00 0.00 19 1006.2
20260504005804 89 167 1.0 2.0 0.00 0.00 0.00 19 1006.4
20260504005304 90 43 1.0 2.0 0.00 0.00 0.00 19 1006.4
20260504004803 89 306 1.0 2.0 0.00 0.00 0.00 19 1006.5
20260504004303 89 5 1.0 2.0 0.00 0.00 0.00 19 1006.5
20260504003303 89 105 1.0 3.0 0.00 0.00 0.00 19 1006.5
20260504001803 89 356 1.0 2.0 0.00 0.00 0.00 19 1006.7
20260504001303 89 34 1.0 6.0 0.00 0.00 0.00 20 1006.7
20260504000803 89 351 1.0 5.0 0.00 0.00 0.00 19 1006.8
20260504000303 89 23 1.0 3.0 0.00 0.00 0.00 19 1006.8
20260503235803 90 118 1.0 3.0 0.00 0.00 0.00 19 1006.8
20260503235304 89 317 1.0 3.0 0.00 0.00 0.00 19 1006.9
20260503234804 89 75 1.0 5.0 0.00 0.00 0.00 19 1006.9
20260503233803 88 12 1.0 7.0 0.00 0.00 0.00 19 1007.0
20260503233303 89 43 2.0 3.0 0.00 0.00 0.00 19 1007.1
20260503232803 89 353 1.0 2.0 0.00 0.00 0.00 19 1007.2
20260503232305 89 345 1.0 2.0 0.00 0.00 0.00 19 1007.2
20260503231803 89 23 1.0 2.0 0.00 0.00 0.00 18 1007.3
20260503231303 88 63 2.0 5.0 0.00 0.00 0.00 18 1007.4
20260503230803 88 59 2.0 5.0 0.00 0.00 0.00 19 1007.5
20260503225804 88 7 2.0 3.0 0.00 0.00 0.00 19 1007.7
20260503225304 88 5 1.0 2.0 0.00 0.00 0.00 19 1007.9
20260503224803 88 11 2.0 3.0 0.00 0.00 0.00 19 1007.8
20260503224304 88 38 2.0 3.0 0.00 0.00 0.00 19 1007.9
20260503223803 88 30 3.0 5.0 0.00 0.00 0.00 18 1008.0
20260503222803 89 49 2.0 3.0 0.00 0.00 0.00 19 1008.2
20260503222304 88 348 1.0 3.0 0.00 0.00 0.00 20 1008.2
20260503221803 87 12 1.0 2.0 0.00 0.00 0.00 20 1008.4
20260503221303 86 322 2.0 6.0 0.00 0.00 0.00 20 1008.5
20260503220803 87 76 2.0 7.0 0.00 0.00 0.00 19 1008.6
20260503220303 87 33 1.0 3.0 0.00 0.00 0.00 20 1008.7
20260503215804 87 90 2.0 5.0 0.00 0.00 0.00 18 1008.8
20260503215304 86 30 1.0 3.0 0.00 0.00 0.00 21 1008.8
20260503214803 86 34 2.0 3.0 0.00 0.00 0.00 20 1008.9
20260503214303 86 332 1.0 5.0 0.00 0.00 0.00 21 1008.9
20260503213803 85 24 1.0 5.0 0.00 0.00 0.00 22 1009.0
20260503213303 85 61 2.0 3.0 0.00 0.00 0.00 22 1009.1
20260503212803 84 87 2.0 5.0 0.00 0.00 0.00 21 1009.2
20260503212305 84 33 2.0 5.0 0.00 0.00 0.00 22 1009.2
20260503211803 84 347 2.0 7.0 0.00 0.00 0.00 22 1009.3
20260503210803 83 22 2.0 5.0 0.00 0.00 0.00 24 1009.5
20260503210304 83 355 2.0 5.0 0.00 0.00 0.00 24 1009.5
20260503205804 83 0 2.0 7.0 0.00 0.00 0.00 24 1009.6
20260503205304 83 18 2.0 3.0 0.00 0.00 0.00 25 1009.6
20260503204803 83 330 1.0 2.0 0.00 0.00 0.00 25 1009.8
20260503204304 84 120 1.0 3.0 0.00 0.00 0.00 25 1009.8
20260503203803 83 349 1.0 2.0 0.00 0.00 0.00 25 1009.9
20260503203303 83 7 2.0 3.0 0.00 0.00 0.00 25 1010.0
20260503202804 82 21 2.0 3.0 0.00 0.00 0.00 25 1010.0
20260503201804 82 28 2.0 3.0 0.00 0.00 0.00 26 1010.1
20260503201304 82 23 2.0 3.0 0.00 0.00 0.00 25 1010.2
20260503200803 82 9 2.0 3.0 0.00 0.00 0.00 24 1010.3
20260503200304 82 10 1.0 3.0 0.00 0.00 0.00 24 1010.3
20260503195803 81 351 2.0 5.0 0.00 0.00 0.00 24 1010.5
20260503195305 81 23 2.0 5.0 0.00 0.00 0.00 24 1010.5
20260503194803 80 5 2.0 3.0 0.00 0.00 0.00 24 1010.6
20260503194304 79 28 2.0 3.0 0.00 0.00 0.00 26 1010.7
20260503193803 79 22 2.0 3.0 0.00 0.00 0.00 27 1010.7
20260503193303 80 45 2.0 3.0 0.00 0.00 0.00 28 1010.8
20260503192804 79 354 1.0 3.0 0.00 0.00 0.00 28 1010.8
20260503192305 78 353 2.0 3.0 0.00 0.00 0.00 30 1010.9
20260503191804 77 2 1.0 2.0 0.00 0.00 0.00 30 1011.0
20260503191303 76 8 2.0 3.0 0.00 0.00 0.00 31 1011.1
20260503190804 77 31 1.0 3.0 0.00 0.00 0.00 31 1011.1
20260503185803 76 20 2.0 3.0 0.00 0.00 0.00 34 1011.2
20260503185304 75 3 2.0 3.0 0.00 0.00 0.00 33 1011.3
20260503184304 75 19 1.0 3.0 0.00 0.00 0.00 34 1011.4
20260503183304 74 26 2.0 3.0 0.00 0.00 0.00 34 1011.5
20260503182803 73 49 2.0 3.0 0.00 0.00 0.00 35 1011.6
20260503182305 73 22 2.0 3.0 0.00 0.00 0.00 37 1011.6
20260503181304 72 19 2.0 3.0 0.00 0.00 0.00 39 1011.7
20260503180803 72 22 2.0 3.0 0.00 0.00 0.00 39 1011.7
20260503180303 71 2 2.0 3.0 0.00 0.00 0.00 38 1011.9
20260503175803 71 65 1.0 2.0 0.00 0.00 0.00 41 1012.0
20260503175305 70 18 1.0 3.0 0.00 0.00 0.00 41 1012.0
20260503174804 70 52 2.0 3.0 0.00 0.00 0.00 40 1012.0
20260503174304 68 29 2.0 3.0 0.00 0.00 0.00 44 1012.1
20260503173804 67 35 2.0 3.0 0.00 0.00 0.00 47 1012.2
20260503173304 67 27 2.0 3.0 0.00 0.00 0.00 48 1012.2
20260503172803 66 25 2.0 3.0 0.00 0.00 0.00 49 1012.2
20260503172305 65 17 2.0 3.0 0.00 0.00 0.00 49 1012.3
20260503171803 65 22 2.0 3.0 0.00 0.00 0.00 50 1012.3
20260503171303 65 33 2.0 3.0 0.00 0.00 0.00 50 1012.3
20260503170804 65 21 2.0 3.0 0.00 0.00 0.00 49 1012.3
20260503150803 60 97 1.0 2.0 0.00 0.00 0.00 58 1013.2
20260503150303 60 104 2.0 3.0 0.00 0.00 0.00 59 1013.2
20260503131303 53 144 2.0 3.0 0.00 0.00 0.00 65 1012.9
20260503130804 54 134 2.0 3.0 0.00 0.00 0.00 66 1012.9
20260503130304 53 154 2.0 3.0 0.00 0.00 0.00 67 1012.8
20260503110803 55 154 2.0 3.0 0.00 0.00 0.00 68 1012.7
20260503110303 55 162 2.0 3.0 0.00 0.00 0.00 67 1012.8
20260503090304 57 152 2.0 3.0 0.00 0.00 0.00 70 1012.7
20260503081304 59 138 2.0 2.0 0.00 0.00 0.00 70 1012.4
20260503080804 59 143 2.0 2.0 0.00 0.00 0.00 70 1012.4
20260503080303 59 158 2.0 3.0 0.00 0.00 0.00 70 1012.4
20260503072803 59 149 2.0 3.0 0.00 0.00 0.00 69 1012.6
20260503071805 60 155 2.0 2.0 0.00 0.00 0.00 68 1012.5
20260503071304 61 145 2.0 2.0 0.00 0.00 0.00 67 1012.5
20260503070804 61 148 1.0 2.0 0.00 0.00 0.00 66 1012.5
20260503070304 61 135 1.0 2.0 0.00 0.00 0.00 65 1012.5
20260503060304 65 307 2.0 3.0 0.00 0.00 0.00 58 1012.2
20260503054804 66 289 1.0 6.0 0.00 0.00 0.00 56 1012.2
20260503054304 67 293 4.0 9.0 0.00 0.00 0.00 54 1012.1
20260503053803 66 264 7.0 9.0 0.00 0.00 0.00 55 1012.2
20260503053304 66 262 4.0 7.0 0.00 0.00 0.00 56 1012.2
20260503052804 66 316 3.0 8.0 0.00 0.00 0.00 55 1012.2
20260503052305 67 299 2.0 7.0 0.00 0.00 0.00 55 1012.3
20260503051803 67 294 5.0 8.0 0.00 0.00 0.00 53 1012.2
20260503051304 67 290 5.0 15.0 0.00 0.00 0.00 53 1012.2
20260503050804 67 306 7.0 16.0 0.00 0.00 0.00 53 1012.1
20260503050303 67 272 8.0 16.0 0.00 0.00 0.00 52 1012.0
20260503045305 68 278 7.0 16.0 0.00 0.00 0.00 52 1011.9
20260503044804 68 287 8.0 16.0 0.00 0.00 0.00 52 1011.9
20260503044305 68 277 11.0 18.0 0.00 0.00 0.00 52 1011.9
20260503043804 68 269 11.0 17.0 0.00 0.00 0.00 52 1011.9
20260503043304 67 280 11.0 17.0 0.00 0.00 0.00 52 1011.8
20260503042305 67 283 9.0 17.0 0.00 0.00 0.00 54 1011.9
20260503041803 67 291 10.0 20.0 0.00 0.00 0.00 54 1011.8
20260503041304 67 303 9.0 17.0 0.00 0.00 0.00 53 1011.7
20260503040804 67 288 9.0 17.0 0.00 0.00 0.00 53 1011.8
20260503040303 68 294 7.0 17.0 0.00 0.00 0.00 53 1011.7
20260503035305 67 285 10.0 21.0 0.00 0.00 0.00 52 1011.5
20260503034804 67 277 8.0 16.0 0.00 0.00 0.00 53 1011.4
20260503034303 67 281 9.0 15.0 0.00 0.00 0.00 54 1011.4
20260503033804 67 301 7.0 10.0 0.00 0.00 0.00 53 1011.2
20260503033304 67 286 7.0 13.0 0.00 0.00 0.00 54 1011.0
20260503032803 67 270 10.0 18.0 0.00 0.00 0.00 54 1010.9
20260503032304 67 287 10.0 17.0 0.00 0.00 0.00 54 1010.7
20260503031805 67 289 10.0 15.0 0.00 0.00 0.00 54 1010.6
20260503030803 67 276 7.0 14.0 0.00 0.00 0.00 54 1010.4
20260503030304 67 277 9.0 15.0 0.00 0.00 0.00 53 1010.3
20260503025305 68 274 6.0 13.0 0.00 0.00 0.00 53 1010.2
20260503024804 68 273 6.0 12.0 0.00 0.00 0.00 52 1010.2
20260503024304 68 284 6.0 12.0 0.00 0.00 0.00 51 1010.1
20260503023804 68 294 6.0 10.0 0.00 0.00 0.00 51 1010.1
20260503023304 69 269 6.0 9.0 0.00 0.00 0.00 51 1010.0
20260503022804 69 276 6.0 10.0 0.00 0.00 0.00 51 1010.0
20260503022305 68 269 5.0 12.0 0.00 0.00 0.00 51 1010.0
20260503021804 69 270 6.0 12.0 0.00 0.00 0.00 50 1009.9
20260503021304 69 272 6.0 12.0 0.00 0.00 0.00 50 1009.9
20260503020804 69 282 6.0 13.0 0.00 0.00 0.00 50 1009.8
20260503020303 69 281 6.0 13.0 0.00 0.00 0.00 50 1009.8
20260503015804 69 273 6.0 12.0 0.00 0.00 0.00 50 1009.7
20260503015305 69 289 7.0 12.0 0.00 0.00 0.00 50 1009.7
20260503014803 69 274 6.0 12.0 0.00 0.00 0.00 51 1009.7
20260503014303 69 265 6.0 9.0 0.00 0.00 0.00 50 1009.7
20260503013804 69 287 5.0 8.0 0.00 0.00 0.00 50 1009.7
20260503013303 69 274 5.0 9.0 0.00 0.00 0.00 50 1009.7
20260503012305 70 269 5.0 9.0 0.00 0.00 0.00 48 1009.7